Year,Month,Day,Hour,Minute,Value (Times are PST for windgust in km/hr)
2006,01,29,00,00,8.10
2006,01,29,00,01,1.60
2006,01,29,00,02,4.80
2006,01,29,00,03,4.80
2006,01,29,00,04,6.40
2006,01,29,00,05,8.10
2006,01,29,00,06,8.10
2006,01,29,00,07,4.80
2006,01,29,00,08,4.80
2006,01,29,00,09,1.60
2006,01,29,00,10,1.60
2006,01,29,00,11,4.80
2006,01,29,00,12,4.80
2006,01,29,00,13,1.60
2006,01,29,00,14,3.20
2006,01,29,00,15,8.10
2006,01,29,00,16,3.20
2006,01,29,00,17,0.00
2006,01,29,00,18,1.60
2006,01,29,00,19,8.10
2006,01,29,00,20,6.40
2006,01,29,00,21,3.20
2006,01,29,00,22,3.20
2006,01,29,00,23,4.80
2006,01,29,00,24,6.40
2006,01,29,00,25,6.40
2006,01,29,00,26,3.20
2006,01,29,00,27,1.60
2006,01,29,00,28,3.20
2006,01,29,00,29,6.40
2006,01,29,00,30,8.10
2006,01,29,00,31,3.20
2006,01,29,00,32,1.60
2006,01,29,00,33,4.80
2006,01,29,00,34,4.80
2006,01,29,00,35,8.10
2006,01,29,00,36,3.20
2006,01,29,00,37,6.40
2006,01,29,00,38,4.80
2006,01,29,00,39,0.00
2006,01,29,00,40,9.60
2006,01,29,00,41,6.40
2006,01,29,00,42,3.20
2006,01,29,00,43,4.80
2006,01,29,00,44,1.60
2006,01,29,00,45,0.00
2006,01,29,00,46,4.80
2006,01,29,00,47,4.80
2006,01,29,00,48,3.20
2006,01,29,00,49,0.00
2006,01,29,00,50,3.20
2006,01,29,00,51,1.60
2006,01,29,00,52,3.20
2006,01,29,00,53,4.80
2006,01,29,00,54,3.20
2006,01,29,00,55,3.20
2006,01,29,00,56,3.20
2006,01,29,00,57,3.20
2006,01,29,00,58,3.20
2006,01,29,00,59,1.60
2006,01,29,01,00,3.20
2006,01,29,01,01,0.00
2006,01,29,01,02,3.20
2006,01,29,01,03,3.20
2006,01,29,01,04,3.20
2006,01,29,01,05,3.20
2006,01,29,01,06,1.60
2006,01,29,01,07,1.60
2006,01,29,01,08,8.10
2006,01,29,01,09,9.60
2006,01,29,01,10,3.20
2006,01,29,01,11,3.20
2006,01,29,01,12,4.80
2006,01,29,01,13,0.00
2006,01,29,01,14,3.20
2006,01,29,01,15,3.20
2006,01,29,01,16,0.00
2006,01,29,01,17,0.00
2006,01,29,01,18,4.80
2006,01,29,01,19,3.20
2006,01,29,01,20,3.20
2006,01,29,01,21,1.60
2006,01,29,01,22,0.00
2006,01,29,01,23,0.00
2006,01,29,01,24,1.60
2006,01,29,01,25,0.00
2006,01,29,01,26,1.60
2006,01,29,01,27,0.00
2006,01,29,01,28,0.00
2006,01,29,01,29,0.00
2006,01,29,01,30,0.00
2006,01,29,01,31,0.00
2006,01,29,01,32,0.00
2006,01,29,01,33,0.00
2006,01,29,01,34,0.00
2006,01,29,01,35,0.00
2006,01,29,01,36,0.00
2006,01,29,01,37,0.00
2006,01,29,01,38,0.00
2006,01,29,01,39,0.00
2006,01,29,01,40,0.00
2006,01,29,01,41,0.00
2006,01,29,01,42,0.00
2006,01,29,01,43,0.00
2006,01,29,01,44,0.00
2006,01,29,01,45,0.00
2006,01,29,01,46,0.00
2006,01,29,01,47,0.00
2006,01,29,01,48,0.00
2006,01,29,01,49,0.00
2006,01,29,01,50,0.00
2006,01,29,01,51,0.00
2006,01,29,01,52,0.00
2006,01,29,01,53,0.00
2006,01,29,01,54,0.00
2006,01,29,01,55,8.10
2006,01,29,01,56,8.10
2006,01,29,01,57,4.80
2006,01,29,01,58,1.60
2006,01,29,01,59,3.20
2006,01,29,02,00,3.20
2006,01,29,02,01,1.60
2006,01,29,02,02,0.00
2006,01,29,02,03,0.00
2006,01,29,02,04,1.60
2006,01,29,02,05,1.60
2006,01,29,02,06,1.60
2006,01,29,02,07,1.60
2006,01,29,02,08,0.00
2006,01,29,02,09,0.00
2006,01,29,02,10,0.00
2006,01,29,02,11,1.60
2006,01,29,02,12,4.80
2006,01,29,02,13,4.80
2006,01,29,02,14,1.60
2006,01,29,02,15,0.00
2006,01,29,02,16,0.00
2006,01,29,02,17,0.00
2006,01,29,02,18,0.00
2006,01,29,02,19,0.00
2006,01,29,02,20,3.20
2006,01,29,02,21,1.60
2006,01,29,02,22,1.60
2006,01,29,02,23,1.60
2006,01,29,02,24,0.00
2006,01,29,02,25,4.80
2006,01,29,02,26,0.00
2006,01,29,02,27,0.00
2006,01,29,02,28,1.60
2006,01,29,02,29,3.20
2006,01,29,02,30,1.60
2006,01,29,02,31,8.10
2006,01,29,02,32,8.10
2006,01,29,02,33,3.20
2006,01,29,02,34,3.20
2006,01,29,02,35,1.60
2006,01,29,02,36,3.20
2006,01,29,02,37,1.60
2006,01,29,02,38,1.60
2006,01,29,02,39,0.00
2006,01,29,02,40,0.00
2006,01,29,02,41,4.80
2006,01,29,02,42,3.20
2006,01,29,02,43,0.00
2006,01,29,02,44,0.00
2006,01,29,02,45,0.00
2006,01,29,02,46,1.60
2006,01,29,02,47,3.20
2006,01,29,02,48,4.80
2006,01,29,02,49,4.80
2006,01,29,02,50,4.80
2006,01,29,02,51,1.60
2006,01,29,02,52,3.20
2006,01,29,02,53,0.00
2006,01,29,02,54,0.00
2006,01,29,02,55,0.00
2006,01,29,02,56,6.40
2006,01,29,02,57,1.60
2006,01,29,02,58,0.00
2006,01,29,02,59,0.00
2006,01,29,03,00,3.20
2006,01,29,03,01,3.20
2006,01,29,03,02,3.20
2006,01,29,03,03,1.60
2006,01,29,03,04,3.20
2006,01,29,03,05,4.80
2006,01,29,03,06,8.10
2006,01,29,03,07,0.00
2006,01,29,03,08,0.00
2006,01,29,03,09,0.00
2006,01,29,03,10,1.60
2006,01,29,03,11,0.00
2006,01,29,03,12,0.00
2006,01,29,03,13,6.40
2006,01,29,03,14,3.20
2006,01,29,03,15,3.20
2006,01,29,03,16,4.80
2006,01,29,03,17,4.80
2006,01,29,03,18,3.20
2006,01,29,03,19,3.20
2006,01,29,03,20,1.60
2006,01,29,03,21,0.00
2006,01,29,03,22,0.00
2006,01,29,03,23,0.00
2006,01,29,03,24,0.00
2006,01,29,03,25,0.00
2006,01,29,03,26,0.00
2006,01,29,03,27,0.00
2006,01,29,03,28,0.00
2006,01,29,03,29,0.00
2006,01,29,03,30,0.00
2006,01,29,03,31,3.20
2006,01,29,03,32,3.20
2006,01,29,03,33,1.60
2006,01,29,03,34,3.20
2006,01,29,03,35,3.20
2006,01,29,03,36,3.20
2006,01,29,03,37,3.20
2006,01,29,03,38,6.40
2006,01,29,03,39,4.80
2006,01,29,03,40,4.80
2006,01,29,03,41,6.40
2006,01,29,03,42,4.80
2006,01,29,03,43,3.20
2006,01,29,03,44,1.60
2006,01,29,03,45,0.00
2006,01,29,03,46,4.80
2006,01,29,03,47,4.80
2006,01,29,03,48,3.20
2006,01,29,03,49,3.20
2006,01,29,03,50,1.60
2006,01,29,03,51,3.20
2006,01,29,03,52,3.20
2006,01,29,03,53,3.20
2006,01,29,03,54,3.20
2006,01,29,03,55,1.60
2006,01,29,03,56,0.00
2006,01,29,03,57,0.00
2006,01,29,03,58,0.00
2006,01,29,03,59,0.00
2006,01,29,04,00,0.00
2006,01,29,04,01,0.00
2006,01,29,04,02,0.00
2006,01,29,04,03,0.00
2006,01,29,04,04,0.00
2006,01,29,04,05,0.00
2006,01,29,04,06,0.00
2006,01,29,04,07,0.00
2006,01,29,04,08,0.00
2006,01,29,04,09,0.00
2006,01,29,04,10,0.00
2006,01,29,04,11,0.00
2006,01,29,04,12,0.00
2006,01,29,04,13,0.00
2006,01,29,04,14,0.00
2006,01,29,04,15,0.00
2006,01,29,04,16,0.00
2006,01,29,04,17,0.00
2006,01,29,04,18,0.00
2006,01,29,04,19,0.00
2006,01,29,04,20,0.00
2006,01,29,04,21,0.00
2006,01,29,04,22,0.00
2006,01,29,04,23,0.00
2006,01,29,04,24,0.00
2006,01,29,04,25,0.00
2006,01,29,04,26,0.00
2006,01,29,04,27,0.00
2006,01,29,04,28,1.60
2006,01,29,04,29,3.20
2006,01,29,04,30,0.00
2006,01,29,04,31,1.60
2006,01,29,04,32,4.80
2006,01,29,04,33,1.60
2006,01,29,04,34,0.00
2006,01,29,04,35,0.00
2006,01,29,04,36,0.00
2006,01,29,04,37,1.60
2006,01,29,04,38,0.00
2006,01,29,04,39,0.00
2006,01,29,04,40,0.00
2006,01,29,04,41,4.80
2006,01,29,04,42,1.60
2006,01,29,04,43,3.20
2006,01,29,04,44,3.20
2006,01,29,04,45,3.20
2006,01,29,04,46,3.20
2006,01,29,04,47,1.60
2006,01,29,04,48,0.00
2006,01,29,04,49,0.00
2006,01,29,04,50,0.00
2006,01,29,04,51,0.00
2006,01,29,04,52,0.00
2006,01,29,04,53,0.00
2006,01,29,04,54,4.80
2006,01,29,04,55,3.20
2006,01,29,04,56,3.20
2006,01,29,04,57,8.10
2006,01,29,04,58,4.80
2006,01,29,04,59,1.60
2006,01,29,05,00,0.00
2006,01,29,05,01,0.00
2006,01,29,05,02,1.60
2006,01,29,05,03,1.60
2006,01,29,05,04,3.20
2006,01,29,05,05,4.80
2006,01,29,05,06,4.80
2006,01,29,05,07,4.80
2006,01,29,05,08,1.60
2006,01,29,05,09,4.80
2006,01,29,05,10,3.20
2006,01,29,05,11,6.40
2006,01,29,05,12,4.80
2006,01,29,05,13,3.20
2006,01,29,05,14,4.80
2006,01,29,05,15,6.40
2006,01,29,05,16,4.80
2006,01,29,05,17,6.40
2006,01,29,05,18,4.80
2006,01,29,05,19,3.20
2006,01,29,05,20,3.20
2006,01,29,05,21,1.60
2006,01,29,05,22,1.60
2006,01,29,05,23,4.80
2006,01,29,05,24,1.60
2006,01,29,05,25,3.20
2006,01,29,05,26,3.20
2006,01,29,05,27,3.20
2006,01,29,05,28,1.60
2006,01,29,05,29,0.00
2006,01,29,05,30,3.20
2006,01,29,05,31,4.80
2006,01,29,05,32,3.20
2006,01,29,05,33,3.20
2006,01,29,05,34,3.20
2006,01,29,05,35,4.80
2006,01,29,05,36,3.20
2006,01,29,05,37,0.00
2006,01,29,05,38,3.20
2006,01,29,05,39,3.20
2006,01,29,05,40,1.60
2006,01,29,05,41,4.80
2006,01,29,05,42,6.40
2006,01,29,05,43,4.80
2006,01,29,05,44,3.20
2006,01,29,05,45,3.20
2006,01,29,05,46,3.20
2006,01,29,05,47,1.60
2006,01,29,05,48,0.00
2006,01,29,05,49,0.00
2006,01,29,05,50,1.60
2006,01,29,05,51,1.60
2006,01,29,05,52,0.00
2006,01,29,05,53,0.00
2006,01,29,05,54,0.00
2006,01,29,05,55,4.80
2006,01,29,05,56,3.20
2006,01,29,05,57,1.60
2006,01,29,05,58,3.20
2006,01,29,05,59,6.40
2006,01,29,06,00,3.20
2006,01,29,06,01,0.00
2006,01,29,06,02,4.80
2006,01,29,06,03,6.40
2006,01,29,06,04,3.20
2006,01,29,06,05,8.10
2006,01,29,06,06,8.10
2006,01,29,06,07,8.10
2006,01,29,06,08,0.00
2006,01,29,06,09,3.20
2006,01,29,06,10,1.60
2006,01,29,06,11,3.20
2006,01,29,06,12,4.80
2006,01,29,06,13,3.20
2006,01,29,06,14,6.40
2006,01,29,06,15,6.40
2006,01,29,06,16,4.80
2006,01,29,06,17,1.60
2006,01,29,06,18,3.20
2006,01,29,06,19,3.20
2006,01,29,06,20,1.60
2006,01,29,06,21,1.60
2006,01,29,06,22,3.20
2006,01,29,06,23,0.00
2006,01,29,06,24,0.00
2006,01,29,06,25,0.00
2006,01,29,06,26,0.00
2006,01,29,06,27,0.00
2006,01,29,06,28,0.00
2006,01,29,06,29,0.00
2006,01,29,06,30,0.00
2006,01,29,06,31,0.00
2006,01,29,06,32,0.00
2006,01,29,06,33,0.00
2006,01,29,06,34,0.00
2006,01,29,06,35,0.00
2006,01,29,06,36,0.00
2006,01,29,06,37,0.00
2006,01,29,06,38,0.00
2006,01,29,06,39,0.00
2006,01,29,06,40,1.60
2006,01,29,06,41,1.60
2006,01,29,06,42,0.00
2006,01,29,06,43,0.00
2006,01,29,06,44,0.00
2006,01,29,06,45,0.00
2006,01,29,06,46,0.00
2006,01,29,06,47,3.20
2006,01,29,06,48,1.60
2006,01,29,06,49,0.00
2006,01,29,06,50,0.00
2006,01,29,06,51,0.00
2006,01,29,06,52,0.00
2006,01,29,06,53,0.00
2006,01,29,06,54,0.00
2006,01,29,06,55,4.80
2006,01,29,06,56,9.60
2006,01,29,06,57,6.40
2006,01,29,06,58,4.80
2006,01,29,06,59,6.40
2006,01,29,07,00,4.80
2006,01,29,07,01,4.80
2006,01,29,07,02,9.60
2006,01,29,07,03,4.80
2006,01,29,07,04,4.80
2006,01,29,07,05,3.20
2006,01,29,07,06,3.20
2006,01,29,07,07,8.10
2006,01,29,07,08,8.10
2006,01,29,07,09,4.80
2006,01,29,07,10,11.30
2006,01,29,07,11,6.40
2006,01,29,07,12,6.40
2006,01,29,07,13,16.10
2006,01,29,07,14,12.90
2006,01,29,07,15,9.60
2006,01,29,07,16,6.40
2006,01,29,07,17,6.40
2006,01,29,07,18,4.80
2006,01,29,07,19,9.60
2006,01,29,07,20,4.80
2006,01,29,07,21,6.40
2006,01,29,07,22,4.80
2006,01,29,07,23,4.80
2006,01,29,07,24,4.80
2006,01,29,07,25,4.80
2006,01,29,07,26,6.40
2006,01,29,07,27,6.40
2006,01,29,07,28,4.80
2006,01,29,07,29,8.10
2006,01,29,07,30,6.40
2006,01,29,07,31,4.80
2006,01,29,07,32,4.80
2006,01,29,07,33,3.20
2006,01,29,07,34,4.80
2006,01,29,07,35,3.20
2006,01,29,07,36,1.60
2006,01,29,07,37,4.80
2006,01,29,07,38,4.80
2006,01,29,07,39,4.80
2006,01,29,07,40,4.80
2006,01,29,07,41,6.40
2006,01,29,07,42,9.60
2006,01,29,07,43,6.40
2006,01,29,07,44,8.10
2006,01,29,07,45,6.40
2006,01,29,07,46,6.40
2006,01,29,07,47,6.40
2006,01,29,07,48,1.60
2006,01,29,07,49,6.40
2006,01,29,07,50,9.60
2006,01,29,07,51,6.40
2006,01,29,07,52,8.10
2006,01,29,07,53,8.10
2006,01,29,07,54,6.40
2006,01,29,07,55,4.80
2006,01,29,07,56,3.20
2006,01,29,07,57,4.80
2006,01,29,07,58,9.60
2006,01,29,07,59,9.60
2006,01,29,08,00,4.80
2006,01,29,08,01,4.80
2006,01,29,08,02,6.40
2006,01,29,08,03,3.20
2006,01,29,08,04,4.80
2006,01,29,08,05,8.10
2006,01,29,08,06,6.40
2006,01,29,08,07,8.10
2006,01,29,08,08,14.50
2006,01,29,08,09,8.10
2006,01,29,08,10,8.10
2006,01,29,08,11,8.10
2006,01,29,08,12,8.10
2006,01,29,08,13,8.10
2006,01,29,08,14,11.30
2006,01,29,08,15,14.50
2006,01,29,08,16,11.30
2006,01,29,08,17,8.10
2006,01,29,08,18,9.60
2006,01,29,08,19,6.40
2006,01,29,08,20,6.40
2006,01,29,08,21,8.10
2006,01,29,08,22,11.30
2006,01,29,08,23,14.50
2006,01,29,08,24,12.90
2006,01,29,08,25,9.60
2006,01,29,08,26,14.50
2006,01,29,08,27,6.40
2006,01,29,08,28,8.10
2006,01,29,08,29,16.10
2006,01,29,08,30,17.70
2006,01,29,08,31,9.60
2006,01,29,08,32,11.30
2006,01,29,08,33,8.10
2006,01,29,08,34,9.60
2006,01,29,08,35,14.50
2006,01,29,08,36,9.60
2006,01,29,08,37,8.10
2006,01,29,08,38,8.10
2006,01,29,08,39,11.30
2006,01,29,08,40,11.30
2006,01,29,08,41,12.90
2006,01,29,08,42,9.60
2006,01,29,08,43,14.50
2006,01,29,08,44,9.60
2006,01,29,08,45,11.30
2006,01,29,08,46,12.90
2006,01,29,08,47,9.60
2006,01,29,08,48,11.30
2006,01,29,08,49,14.50
2006,01,29,08,50,14.50
2006,01,29,08,51,14.50
2006,01,29,08,52,12.90
2006,01,29,08,53,6.40
2006,01,29,08,54,11.30
2006,01,29,08,55,8.10
2006,01,29,08,56,17.70
2006,01,29,08,57,11.30
2006,01,29,08,58,17.70
2006,01,29,08,59,14.50
2006,01,29,09,00,16.10
2006,01,29,09,01,14.50
2006,01,29,09,02,9.60
2006,01,29,09,03,9.60
2006,01,29,09,04,22.50
2006,01,29,09,05,22.50
2006,01,29,09,06,14.50
2006,01,29,09,07,11.30
2006,01,29,09,08,14.50
2006,01,29,09,09,17.70
2006,01,29,09,10,16.10
2006,01,29,09,11,19.30
2006,01,29,09,12,16.10
2006,01,29,09,13,14.50
2006,01,29,09,14,12.90
2006,01,29,09,15,8.10
2006,01,29,09,16,6.40
2006,01,29,09,17,14.50
2006,01,29,09,18,9.60
2006,01,29,09,19,14.50
2006,01,29,09,20,14.50
2006,01,29,09,21,9.60
2006,01,29,09,22,12.90
2006,01,29,09,23,11.30
2006,01,29,09,24,9.60
2006,01,29,09,25,11.30
2006,01,29,09,26,17.70
2006,01,29,09,27,17.70
2006,01,29,09,28,20.90
2006,01,29,09,29,11.30
2006,01,29,09,30,19.30
2006,01,29,09,31,16.10
2006,01,29,09,32,9.60
2006,01,29,09,33,9.60
2006,01,29,09,34,16.10
2006,01,29,09,35,11.30
2006,01,29,09,36,14.50
2006,01,29,09,37,9.60
2006,01,29,09,38,11.30
2006,01,29,09,39,11.30
2006,01,29,09,40,11.30
2006,01,29,09,41,17.70
2006,01,29,09,42,9.60
2006,01,29,09,43,9.60
2006,01,29,09,44,8.10
2006,01,29,09,45,4.80
2006,01,29,09,46,17.70
2006,01,29,09,47,22.50
2006,01,29,09,48,17.70
2006,01,29,09,49,14.50
2006,01,29,09,50,22.50
2006,01,29,09,51,16.10
2006,01,29,09,52,11.30
2006,01,29,09,53,16.10
2006,01,29,09,54,19.30
2006,01,29,09,55,19.30
2006,01,29,09,56,14.50
2006,01,29,09,57,20.90
2006,01,29,09,58,14.50
2006,01,29,09,59,19.30
2006,01,29,10,00,16.10
2006,01,29,10,01,19.30
2006,01,29,10,02,12.90
2006,01,29,10,03,16.10
2006,01,29,10,04,16.10
2006,01,29,10,05,9.60
2006,01,29,10,06,9.60
2006,01,29,10,07,11.30
2006,01,29,10,08,22.50
2006,01,29,10,09,16.10
2006,01,29,10,10,19.30
2006,01,29,10,11,9.60
2006,01,29,10,12,9.60
2006,01,29,10,13,14.50
2006,01,29,10,14,25.70
2006,01,29,10,15,24.20
2006,01,29,10,16,19.30
2006,01,29,10,17,16.10
2006,01,29,10,18,22.50
2006,01,29,10,19,20.90
2006,01,29,10,20,19.30
2006,01,29,10,21,19.30
2006,01,29,10,22,20.90
2006,01,29,10,23,24.20
2006,01,29,10,24,17.70
2006,01,29,10,25,16.10
2006,01,29,10,26,14.50
2006,01,29,10,27,17.70
2006,01,29,10,28,16.10
2006,01,29,10,29,19.30
2006,01,29,10,30,14.50
2006,01,29,10,31,14.50
2006,01,29,10,32,17.70
2006,01,29,10,33,11.30
2006,01,29,10,34,24.20
2006,01,29,10,35,19.30
2006,01,29,10,36,17.70
2006,01,29,10,37,17.70
2006,01,29,10,38,16.10
2006,01,29,10,39,17.70
2006,01,29,10,40,22.50
2006,01,29,10,41,22.50
2006,01,29,10,42,16.10
2006,01,29,10,43,17.70
2006,01,29,10,44,24.20
2006,01,29,10,45,22.50
2006,01,29,10,46,17.70
2006,01,29,10,47,16.10
2006,01,29,10,48,14.50
2006,01,29,10,49,22.50
2006,01,29,10,50,20.90
2006,01,29,10,51,22.50
2006,01,29,10,52,27.40
2006,01,29,10,53,30.60
2006,01,29,10,54,20.90
2006,01,29,10,55,17.70
2006,01,29,10,56,22.50
2006,01,29,10,57,22.50
2006,01,29,10,58,19.30
2006,01,29,10,59,19.30
2006,01,29,11,00,30.60
2006,01,29,11,01,27.40
2006,01,29,11,02,19.30
2006,01,29,11,03,29.00
2006,01,29,11,04,25.70
2006,01,29,11,05,16.10
2006,01,29,11,06,22.50
2006,01,29,11,07,20.90
2006,01,29,11,08,27.40
2006,01,29,11,09,22.50
2006,01,29,11,10,19.30
2006,01,29,11,11,9.60
2006,01,29,11,12,35.40
2006,01,29,11,13,24.20
2006,01,29,11,14,22.50
2006,01,29,11,15,29.00
2006,01,29,11,16,33.80
2006,01,29,11,17,24.20
2006,01,29,11,18,20.90
2006,01,29,11,19,12.90
2006,01,29,11,20,22.50
2006,01,29,11,21,17.70
2006,01,29,11,22,14.50
2006,01,29,11,23,19.30
2006,01,29,11,24,22.50
2006,01,29,11,25,19.30
2006,01,29,11,26,24.20
2006,01,29,11,27,22.50
2006,01,29,11,28,30.60
2006,01,29,11,29,22.50
2006,01,29,11,30,11.30
2006,01,29,11,31,29.00
2006,01,29,11,32,24.20
2006,01,29,11,33,20.90
2006,01,29,11,34,17.70
2006,01,29,11,35,40.20
2006,01,29,11,36,29.00
2006,01,29,11,37,32.20
2006,01,29,11,38,32.20
2006,01,29,11,39,25.70
2006,01,29,11,40,37.00
2006,01,29,11,41,17.70
2006,01,29,11,42,40.20
2006,01,29,11,43,29.00
2006,01,29,11,44,37.00
2006,01,29,11,45,37.00
2006,01,29,11,46,30.60
2006,01,29,11,47,29.00
2006,01,29,11,48,37.00
2006,01,29,11,49,30.60
2006,01,29,11,50,48.30
2006,01,29,11,51,37.00
2006,01,29,11,52,35.40
2006,01,29,11,53,46.70
2006,01,29,11,54,38.60
2006,01,29,11,55,25.70
2006,01,29,11,56,29.00
2006,01,29,11,57,40.20
2006,01,29,11,58,35.40
2006,01,29,11,59,43.50
2006,01,29,12,00,40.20
2006,01,29,12,01,29.00
2006,01,29,12,02,33.80
2006,01,29,12,03,30.60
2006,01,29,12,04,25.70
2006,01,29,12,05,32.20
2006,01,29,12,06,37.00
2006,01,29,12,07,32.20
2006,01,29,12,08,41.80
2006,01,29,12,09,35.40
2006,01,29,12,10,35.40
2006,01,29,12,11,30.60
2006,01,29,12,12,35.40
2006,01,29,12,13,20.90
2006,01,29,12,14,38.60
2006,01,29,12,15,30.60
2006,01,29,12,16,37.00
2006,01,29,12,17,27.40
2006,01,29,12,18,25.70
2006,01,29,12,19,27.40
2006,01,29,12,20,32.20
2006,01,29,12,21,29.00
2006,01,29,12,22,41.80
2006,01,29,12,23,35.40
2006,01,29,12,24,43.50
2006,01,29,12,25,43.50
2006,01,29,12,26,40.20
2006,01,29,12,27,48.30
2006,01,29,12,28,35.40
2006,01,29,12,29,27.40
2006,01,29,12,30,32.20
2006,01,29,12,31,24.20
2006,01,29,12,32,25.70
2006,01,29,12,33,53.10
2006,01,29,12,34,35.40
2006,01,29,12,35,33.80
2006,01,29,12,36,46.70
2006,01,29,12,37,37.00
2006,01,29,12,38,29.00
2006,01,29,12,39,40.20
2006,01,29,12,40,32.20
2006,01,29,12,41,40.20
2006,01,29,12,42,41.80
2006,01,29,12,43,45.10
2006,01,29,12,44,45.10
2006,01,29,12,45,46.70
2006,01,29,12,46,38.60
2006,01,29,12,47,41.80
2006,01,29,12,48,29.00
2006,01,29,12,49,40.20
2006,01,29,12,50,45.10
2006,01,29,12,51,33.80
2006,01,29,12,52,37.00
2006,01,29,12,53,41.80
2006,01,29,12,54,45.10
2006,01,29,12,55,33.80
2006,01,29,12,56,27.40
2006,01,29,12,57,41.80
2006,01,29,12,58,38.60
2006,01,29,12,59,33.80
2006,01,29,13,00,24.20
2006,01,29,13,01,35.40
2006,01,29,13,02,27.40
2006,01,29,13,03,25.70
2006,01,29,13,04,30.60
2006,01,29,13,05,24.20
2006,01,29,13,06,38.60
2006,01,29,13,07,33.80
2006,01,29,13,08,43.50
2006,01,29,13,09,35.40
2006,01,29,13,10,33.80
2006,01,29,13,11,30.60
2006,01,29,13,12,25.70
2006,01,29,13,13,41.80
2006,01,29,13,14,49.90
2006,01,29,13,15,30.60
2006,01,29,13,16,25.70
2006,01,29,13,17,37.00
2006,01,29,13,18,27.40
2006,01,29,13,19,35.40
2006,01,29,13,20,25.70
2006,01,29,13,21,30.60
2006,01,29,13,22,41.80
2006,01,29,13,23,32.20
2006,01,29,13,24,43.50
2006,01,29,13,25,20.90
2006,01,29,13,26,29.00
2006,01,29,13,27,24.20
2006,01,29,13,28,37.00
2006,01,29,13,29,32.20
2006,01,29,13,30,41.80
2006,01,29,13,31,41.80
2006,01,29,13,32,41.80
2006,01,29,13,33,32.20
2006,01,29,13,34,40.20
2006,01,29,13,35,49.90
2006,01,29,13,36,59.50
2006,01,29,13,37,48.30
2006,01,29,13,38,35.40
2006,01,29,13,39,41.80
2006,01,29,13,40,41.80
2006,01,29,13,41,41.80
2006,01,29,13,42,45.10
2006,01,29,13,43,30.60
2006,01,29,13,44,43.50
2006,01,29,13,45,29.00
2006,01,29,13,46,41.80
2006,01,29,13,47,45.10
2006,01,29,13,48,40.20
2006,01,29,13,49,29.00
2006,01,29,13,50,30.60
2006,01,29,13,51,35.40
2006,01,29,13,52,30.60
2006,01,29,13,53,40.20
2006,01,29,13,54,40.20
2006,01,29,13,55,43.50
2006,01,29,13,56,33.80
2006,01,29,13,57,49.90
2006,01,29,13,58,33.80
2006,01,29,13,59,45.10
2006,01,29,14,00,37.00
2006,01,29,14,01,43.50
2006,01,29,14,02,40.20
2006,01,29,14,03,32.20
2006,01,29,14,04,30.60
2006,01,29,14,05,33.80
2006,01,29,14,06,37.00
2006,01,29,14,07,29.00
2006,01,29,14,08,41.80
2006,01,29,14,09,38.60
2006,01,29,14,10,45.10
2006,01,29,14,11,43.50
2006,01,29,14,12,41.80
2006,01,29,14,13,46.70
2006,01,29,14,14,41.80
2006,01,29,14,15,46.70
2006,01,29,14,16,53.10
2006,01,29,14,17,53.10
2006,01,29,14,18,49.90
2006,01,29,14,19,49.90
2006,01,29,14,20,43.50
2006,01,29,14,21,37.00
2006,01,29,14,22,37.00
2006,01,29,14,23,46.70
2006,01,29,14,24,43.50
2006,01,29,14,25,37.00
2006,01,29,14,26,38.60
2006,01,29,14,27,25.70
2006,01,29,14,28,38.60
2006,01,29,14,29,49.90
2006,01,29,14,30,62.70
2006,01,29,14,31,35.40
2006,01,29,14,32,45.10
2006,01,29,14,33,43.50
2006,01,29,14,34,35.40
2006,01,29,14,35,41.80
2006,01,29,14,36,35.40
2006,01,29,14,37,53.10
2006,01,29,14,38,49.90
2006,01,29,14,39,38.60
2006,01,29,14,40,53.10
2006,01,29,14,41,46.70
2006,01,29,14,42,43.50
2006,01,29,14,43,33.80
2006,01,29,14,44,38.60
2006,01,29,14,45,38.60
2006,01,29,14,46,24.20
2006,01,29,14,47,32.20
2006,01,29,14,48,40.20
2006,01,29,14,49,32.20
2006,01,29,14,50,37.00
2006,01,29,14,51,45.10
2006,01,29,14,52,38.60
2006,01,29,14,53,45.10
2006,01,29,14,54,49.90
2006,01,29,14,55,40.20
2006,01,29,14,56,38.60
2006,01,29,14,57,40.20
2006,01,29,14,58,38.60
2006,01,29,14,59,33.80
2006,01,29,15,00,45.10
2006,01,29,15,01,49.90
2006,01,29,15,02,30.60
2006,01,29,15,03,38.60
2006,01,29,15,04,35.40
2006,01,29,15,05,24.20
2006,01,29,15,06,30.60
2006,01,29,15,07,46.70
2006,01,29,15,08,38.60
2006,01,29,15,09,35.40
2006,01,29,15,10,33.80
2006,01,29,15,11,40.20
2006,01,29,15,12,43.50
2006,01,29,15,13,51.50
2006,01,29,15,14,37.00
2006,01,29,15,15,51.50
2006,01,29,15,16,35.40
2006,01,29,15,17,22.50
2006,01,29,15,18,24.20
2006,01,29,15,19,49.90
2006,01,29,15,20,43.50
2006,01,29,15,21,27.40
2006,01,29,15,22,41.80
2006,01,29,15,23,33.80
2006,01,29,15,24,37.00
2006,01,29,15,25,37.00
2006,01,29,15,26,29.00
2006,01,29,15,27,38.60
2006,01,29,15,28,48.30
2006,01,29,15,29,29.00
2006,01,29,15,30,51.50
2006,01,29,15,31,46.70
2006,01,29,15,32,43.50
2006,01,29,15,33,43.50
2006,01,29,15,34,32.20
2006,01,29,15,35,29.00
2006,01,29,15,36,48.30
2006,01,29,15,37,27.40
2006,01,29,15,38,33.80
2006,01,29,15,39,29.00
2006,01,29,15,40,22.50
2006,01,29,15,41,33.80
2006,01,29,15,42,41.80
2006,01,29,15,43,48.30
2006,01,29,15,44,45.10
2006,01,29,15,45,32.20
2006,01,29,15,46,41.80
2006,01,29,15,47,33.80
2006,01,29,15,48,35.40
2006,01,29,15,49,41.80
2006,01,29,15,50,40.20
2006,01,29,15,51,35.40
2006,01,29,15,52,27.40
2006,01,29,15,53,41.80
2006,01,29,15,54,43.50
2006,01,29,15,55,41.80
2006,01,29,15,56,59.50
2006,01,29,15,57,41.80
2006,01,29,15,58,41.80
2006,01,29,15,59,25.70
2006,01,29,16,00,35.40
2006,01,29,16,01,35.40
2006,01,29,16,02,46.70
2006,01,29,16,03,41.80
2006,01,29,16,04,46.70
2006,01,29,16,05,38.60
2006,01,29,16,06,35.40
2006,01,29,16,07,24.20
2006,01,29,16,08,41.80
2006,01,29,16,09,35.40
2006,01,29,16,10,17.70
2006,01,29,16,11,25.70
2006,01,29,16,12,33.80
2006,01,29,16,13,33.80
2006,01,29,16,14,33.80
2006,01,29,16,15,27.40
2006,01,29,16,16,33.80
2006,01,29,16,17,49.90
2006,01,29,16,18,45.10
2006,01,29,16,19,35.40
2006,01,29,16,20,37.00
2006,01,29,16,21,35.40
2006,01,29,16,22,32.20
2006,01,29,16,23,40.20
2006,01,29,16,24,32.20
2006,01,29,16,25,17.70
2006,01,29,16,26,41.80
2006,01,29,16,27,33.80
2006,01,29,16,28,41.80
2006,01,29,16,29,33.80
2006,01,29,16,30,35.40
2006,01,29,16,31,46.70
2006,01,29,16,32,32.20
2006,01,29,16,33,37.00
2006,01,29,16,34,37.00
2006,01,29,16,35,32.20
2006,01,29,16,36,40.20
2006,01,29,16,37,37.00
2006,01,29,16,38,37.00
2006,01,29,16,39,30.60
2006,01,29,16,40,38.60
2006,01,29,16,41,41.80
2006,01,29,16,42,24.20
2006,01,29,16,43,6.40
2006,01,29,16,44,14.50
2006,01,29,16,45,30.60
2006,01,29,16,46,40.20
2006,01,29,16,47,37.00
2006,01,29,16,48,45.10
2006,01,29,16,49,51.50
2006,01,29,16,50,43.50
2006,01,29,16,51,35.40
2006,01,29,16,52,33.80
2006,01,29,16,53,38.60
2006,01,29,16,54,35.40
2006,01,29,16,55,29.00
2006,01,29,16,56,38.60
2006,01,29,16,57,40.20
2006,01,29,16,58,37.00
2006,01,29,16,59,40.20
2006,01,29,17,00,24.20
2006,01,29,17,01,41.80
2006,01,29,17,02,38.60
2006,01,29,17,03,40.20
2006,01,29,17,04,30.60
2006,01,29,17,05,32.20
2006,01,29,17,06,37.00
2006,01,29,17,07,43.50
2006,01,29,17,08,37.00
2006,01,29,17,09,43.50
2006,01,29,17,10,40.20
2006,01,29,17,11,37.00
2006,01,29,17,12,46.70
2006,01,29,17,13,33.80
2006,01,29,17,14,49.90
2006,01,29,17,15,41.80
2006,01,29,17,16,43.50
2006,01,29,17,17,38.60
2006,01,29,17,18,48.30
2006,01,29,17,19,41.80
2006,01,29,17,20,29.00
2006,01,29,17,21,43.50
2006,01,29,17,22,35.40
2006,01,29,17,23,43.50
2006,01,29,17,24,40.20
2006,01,29,17,25,35.40
2006,01,29,17,26,38.60
2006,01,29,17,27,22.50
2006,01,29,17,28,43.50
2006,01,29,17,29,37.00
2006,01,29,17,30,43.50
2006,01,29,17,31,24.20
2006,01,29,17,32,35.40
2006,01,29,17,33,40.20
2006,01,29,17,34,32.20
2006,01,29,17,35,30.60
2006,01,29,17,36,45.10
2006,01,29,17,37,45.10
2006,01,29,17,38,49.90
2006,01,29,17,39,38.60
2006,01,29,17,40,35.40
2006,01,29,17,41,41.80
2006,01,29,17,42,35.40